Stations météo

Publicité
Saarbrücken-Ensheim, Allemagne (10708): Température de l'air & dewpoint: 21.05.2019 05:00:00 - 27.05.2019 05:00:00 (CEST)Saarbrücken-Ensheim, Allemagne (10708): Température de l'air 5cm & Température de l'air -5cm: 21.05.2019 05:00:00 - 27.05.2019 05:00:00 (CEST)Saarbrücken-Ensheim, Allemagne (10708): Température de l'air -20cm & Température de l'air -100cm: 21.05.2019 05:00:00 - 27.05.2019 05:00:00 (CEST)Saarbrücken-Ensheim, Allemagne (10708): Vitesse du vent & gusts: 21.05.2019 05:00:00 - 27.05.2019 05:00:00 (CEST)Saarbrücken-Ensheim, Allemagne (10708): Direction du vent: 21.05.2019 05:00:00 - 27.05.2019 05:00:00 (CEST)Saarbrücken-Ensheim, Allemagne (10708): reduced air pressure: 21.05.2019 05:00:00 - 27.05.2019 05:00:00 (CEST)Saarbrücken-Ensheim, Allemagne (10708): visibility: 21.05.2019 05:00:00 - 27.05.2019 05:00:00 (CEST)Saarbrücken-Ensheim, Allemagne (10708): Ensoleillement: 21.05.2019 05:00:00 - 27.05.2019 05:00:00 (CEST)Saarbrücken-Ensheim, Allemagne (10708): Quantités de précipitations: 21.05.2019 05:00:00 - 27.05.2019 05:00:00 (CEST)
Date & Time tt [°C] td [°C] tt 5cm [°C] tt -5cm [°C] tt -20cm [°C] tt -100cm [°C] ff [km/h] ff [knt] fx [km/h] fx [knt] dd ppp [hPa] vv [km] sd [min] rr [mm]
27.05.2019 05:00:00 10,5 9,4 6,9 14,2 17,6 13,7 7 4 11 6 SSW 1012,7 40 0 0,0
27.05.2019 04:00:00 11,8 9,7 8,5 14,9 17,9 13,7 6 4 18 10 W 1012,6 40 0 0,0
27.05.2019 03:00:00 13,0 9,9 11,7 15,6 18,3 13,7 12 6 16 9 W 1013,0 40 0 0,0
27.05.2019 02:00:00 13,2 9,8 11,0 15,5 18,7 13,7 10 6 18 10 W 1013,1 40 0 0,0
27.05.2019 01:00:00 13,6 9,3 9,5 16,1 19,2 13,7 9 5 13 7 W 1013,3 45 0 0,0
27.05.2019 00:00:00 13,2 8,7 8,4 17,0 19,7 13,7 4 2 5 3 WSW 1013,6 45 0 0,0
26.05.2019 23:00:00 13,6 8,0 9,4 18,1 20,2 13,7 5 3 9 5 W 1013,8 10 0 0,0
26.05.2019 22:00:00 15,4 7,4 10,3 19,6 20,7 13,7 9 5 11 6 WSW 1013,5 10 0 0,0
26.05.2019 21:00:00 16,7 7,9 12,8 21,4 21,1 13,7 9 5 22 12 SW 1013,5 10 20 0,0
26.05.2019 20:00:00 18,7 8,0 17,9 23,3 21,3 13,7 14 8 22 12 SW 1013,5 50 40 0,0
26.05.2019 19:00:00 20,2 6,8 21,7 25,5 21,3 13,7 13 7 26 14 SW 1013,6 10 32 0,0
26.05.2019 18:00:00 20,4 8,0 23,4 27,8 21,1 13,6 9 5 29 16 WSW 1014,0 10 53 0,0
26.05.2019 17:00:00 20,3 6,8 24,8 28,2 20,7 13,6 15 8 29 16 W 1014,5 10 37 0,0
26.05.2019 16:00:00 20,4 6,4 27,3 29,5 20,0 13,6 17 9 30 16 WSW 1014,9 50 52 0,0
26.05.2019 15:00:00 19,6 7,0 26,2 28,4 19,3 13,6 13 7 29 16 - 1015,3 10 41 0,0
26.05.2019 14:00:00 18,7 7,4 23,6 27,4 18,6 13,6 15 8 27 15 WSW 1015,8 30 43 0,0
26.05.2019 13:00:00 18,2 7,0 24,7 26,4 17,8 13,6 15 8 29 16 WSW 1016,5 30 57 0,0
26.05.2019 12:00:00 16,8 7,5 21,8 24,1 17,0 13,6 14 8 29 16 W 1017,2 20 51 0,0
26.05.2019 11:00:00 15,7 8,5 22,2 22,3 16,3 13,6 10 6 18 10 WSW 1017,6 20 60 0,0
26.05.2019 10:00:00 14,5 10,1 21,1 19,1 15,8 13,5 9 5 13 7 SSW 1017,9 17 60 0,0
26.05.2019 09:00:00 12,9 8,9 17,8 15,9 15,6 13,5 6 4 9 5 W 1018,1 15 60 0,0
26.05.2019 08:00:00 11,3 7,6 13,7 13,2 15,6 13,5 4 2 5 3 - 1018,1 10 60 0,0
26.05.2019 07:00:00 8,8 7,2 9,1 11,9 15,9 13,5 0 0 5 3 N 1018,3 10 34 0,0
26.05.2019 06:00:00 7,2 6,8 4,0 11,9 16,3 13,5 5 3 8 4 W 1018,4 10 0 0,0
26.05.2019 05:00:00 7,3 6,7 4,0 12,4 16,7 13,5 2 1 4 2 SW 1018,3 10 0 0,0
26.05.2019 04:00:00 8,2 7,5 5,2 13,0 17,1 13,5 3 1 8 4 WNW 1018,2 50 0 0,0
26.05.2019 03:00:00 9,0 7,8 5,5 13,6 17,5 13,4 5 3 5 3 S 1018,0 50 0 0,0
26.05.2019 02:00:00 9,8 8,4 5,6 14,4 18,0 13,4 5 3 9 5 W 1018,2 10 0 0,0
26.05.2019 01:00:00 10,0 7,7 6,6 15,2 18,5 13,4 2 1 5 3 - 1018,3 10 0 0,0
26.05.2019 00:00:00 10,8 8,0 7,3 16,1 19,0 13,4 3 2 8 4 NW 1018,3 50 0 0,0
25.05.2019 23:00:00 12,0 8,0 8,5 17,3 19,5 13,4 5 3 10 5 N 1018,1 50 0 0,0
25.05.2019 22:00:00 14,0 7,5 10,1 18,7 19,9 13,4 8 4 16 9 N 1017,1 50 14 0,0
25.05.2019 21:00:00 16,4 6,5 15,1 20,4 20,3 13,4 15 8 24 13 WNW 1016,3 10 59 0,0
25.05.2019 20:00:00 18,1 7,6 17,6 21,9 20,5 13,4 16 9 31 17 WNW 1016,0 10 60 0,0
25.05.2019 19:00:00 18,9 7,5 20,0 24,4 20,5 13,4 22 12 31 17 WNW 1015,6 50 56 0,0
25.05.2019 18:00:00 18,3 6,8 19,9 25,8 20,4 13,4 22 12 35 19 WNW 1015,5 50 36 0,0
25.05.2019 17:00:00 20,0 6,2 23,2 26,6 20,1 13,3 16 8 29 16 NW 1015,0 50 48 0,0
25.05.2019 16:00:00 19,6 4,7 22,9 27,8 19,5 13,3 15 8 36 19 NW 1015,1 50 55 0,0
25.05.2019 15:00:00 20,1 5,2 26,4 27,4 18,8 13,3 15 8 24 13 NNW 1015,4 10 58 0,0
25.05.2019 14:00:00 18,9 6,0 26,5 25,6 18,1 13,3 11 6 22 12 NW 1015,9 50 25 0,0
25.05.2019 13:00:00 19,0 4,2 26,4 25,3 17,4 13,3 14 8 22 12 NW 1016,2 45 59 0,0
25.05.2019 12:00:00 17,4 7,3 21,8 21,9 16,8 13,3 9 5 16 9 W 1016,6 10 4 0,0
25.05.2019 11:00:00 16,6 8,7 21,2 20,8 16,2 13,3 7 4 16 9 NNW 1016,6 40 27 0,0
25.05.2019 10:00:00 15,6 9,3 19,0 18,1 15,9 13,2 9 5 15 8 WNW 1016,7 35 26 0,0
25.05.2019 09:00:00 13,6 8,9 17,3 15,2 15,7 13,2 7 4 11 6 W 1016,6 35 13 0,0
25.05.2019 08:00:00 12,7 8,4 15,0 13,5 15,9 13,2 3 1 5 3 N 1016,3 30 9 0,0
25.05.2019 07:00:00 10,1 7,9 8,8 12,5 16,2 13,2 5 3 8 4 WNW 1016,3 10 3 0,0
25.05.2019 06:00:00 9,0 7,5 6,1 12,5 16,5 13,2 2 1 8 4 ENE 1016,0 25 0 0,0
25.05.2019 05:00:00 9,1 7,5 5,5 13,1 16,9 13,2 3 2 8 4 W 1015,9 30 0 0,0
25.05.2019 04:00:00 10,0 7,6 6,2 13,6 17,3 13,2 4 2 5 3 W 1015,7 30 0 0,0
25.05.2019 03:00:00 11,2 7,8 7,2 14,2 17,8 13,1 4 2 14 8 - 1015,3 10 0 0,0
25.05.2019 02:00:00 11,1 7,9 7,4 15,0 18,2 13,1 9 5 11 6 N 1015,3 10 0 0,0
25.05.2019 01:00:00 13,6 8,0 9,6 15,8 18,7 13,1 10 5 13 7 NNW 1015,1 30 0 0,0
25.05.2019 00:00:00 13,2 8,1 8,4 16,7 19,3 13,1 5 3 11 6 WSW 1015,0 10 0 0,0
24.05.2019 23:00:00 14,4 7,9 9,0 17,9 19,8 13,1 9 5 11 6 WNW 1014,6 10 0 0,0
24.05.2019 22:00:00 15,8 7,9 10,6 19,4 20,3 13,1 6 3 11 6 NW 1014,2 40 2 0,0
24.05.2019 21:00:00 18,5 7,2 14,9 21,2 20,7 13,1 7 4 15 8 NNW 1013,5 40 40 0,0
24.05.2019 20:00:00 20,7 6,4 19,2 23,1 20,9 13,1 11 6 16 9 NW 1012,9 10 56 0,0
24.05.2019 19:00:00 21,7 6,1 23,1 25,3 21,0 13,1 11 6 21 11 W 1012,8 10 38 0,0
24.05.2019 18:00:00 21,4 6,8 23,3 26,7 20,9 13,1 2 1 16 9 - 1013,2 10 11 0,0
24.05.2019 17:00:00 22,7 7,8 26,8 29,1 20,5 13,1 5 3 13 7 - 1013,3 10 49 0,0
24.05.2019 16:00:00 21,6 6,7 26,9 28,8 19,9 13,1 4 2 15 8 S 1014,0 35 49 0,0
24.05.2019 15:00:00 21,3 6,7 27,8 29,1 19,2 13,1 7 4 16 9 NE 1014,1 40 48 0,0
24.05.2019 14:00:00 21,3 7,2 25,6 28,2 18,5 13,0 5 3 13 7 - 1014,2 10 53 0,0
24.05.2019 13:00:00 20,2 6,8 25,2 26,9 17,6 13,0 7 4 15 8 NNW 1014,8 35 55 0,0
24.05.2019 12:00:00 20,0 8,2 24,1 25,2 16,8 13,0 9 5 16 9 ENE 1015,0 10 60 0,0
24.05.2019 11:00:00 19,2 7,4 23,9 22,4 16,1 13,0 8 4 13 7 ENE 1015,2 10 60 0,0
24.05.2019 10:00:00 18,3 6,4 21,3 19,8 15,6 13,0 6 3 11 6 ENE 1015,4 30 60 0,0
24.05.2019 09:00:00 17,2 8,0 20,1 16,7 15,4 13,0 6 4 10 6 NE 1015,6 30 60 0,0
24.05.2019 08:00:00 15,1 7,2 15,8 14,0 15,5 13,0 2 1 9 5 E 1015,9 30 60 0,0
24.05.2019 07:00:00 12,1 7,5 11,7 12,9 15,7 13,0 4 2 9 5 - 1016,0 10 24 0,0
24.05.2019 06:00:00 9,8 7,3 7,2 13,0 16,0 13,0 4 2 8 4 - 1016,1 10 0 0,0
24.05.2019 05:00:00 10,1 7,4 7,4 13,4 16,3 13,0 2 1 8 4 - 1016,1 10 0 0,0
24.05.2019 04:00:00 10,4 7,4 8,1 13,9 16,7 13,0 2 1 8 4 - 1016,4 10 0 0,0
24.05.2019 03:00:00 11,0 6,9 8,1 14,4 17,0 13,0 5 3 9 5 NE 1016,4 25 0 0,0
24.05.2019 02:00:00 12,0 7,3 10,0 15,0 17,4 13,0 5 3 8 4 NE 1016,7 10 0 0,0
24.05.2019 01:00:00 13,3 6,7 10,1 15,7 17,8 13,0 4 2 5 3 ENE 1016,8 10 0 0,0
24.05.2019 00:00:00 13,2 8,0 9,8 16,2 18,3 13,0 5 3 9 5 E 1017,0 10 0 0,0
23.05.2019 23:00:00 13,3 8,3 9,3 17,1 18,9 13,0 7 4 15 8 E 1017,1 30 0 0,0
23.05.2019 22:00:00 14,0 6,8 10,9 18,6 19,4 13,0 11 6 20 11 ENE 1016,8 10 0 0,0
23.05.2019 21:00:00 17,5 6,9 13,3 20,8 19,8 13,0 5 3 8 4 NNE 1016,3 10 40 0,0
23.05.2019 20:00:00 19,8 5,8 18,6 22,7 20,0 13,0 3 1 9 5 NE 1016,0 40 60 0,0
23.05.2019 19:00:00 19,9 5,6 20,3 25,6 19,9 13,0 5 3 15 8 E 1016,1 40 60 0,0
23.05.2019 18:00:00 20,0 6,3 21,8 27,5 19,6 13,0 8 4 18 10 E 1016,6 10 60 0,0
23.05.2019 17:00:00 20,1 5,7 25,0 28,4 19,0 13,0 10 5 21 11 ESE 1016,9 40 60 0,0
23.05.2019 16:00:00 19,7 5,5 24,3 28,3 18,4 13,0 9 5 21 11 - 1017,4 10 54 0,0
23.05.2019 15:00:00 19,0 5,0 24,1 27,5 17,6 12,9 6 3 18 10 SSE 1018,1 40 44 0,0
23.05.2019 14:00:00 18,1 6,1 20,4 27,6 16,7 12,9 9 5 24 13 NE 1018,5 10 50 0,0
23.05.2019 13:00:00 18,2 5,2 23,2 25,4 15,7 12,9 9 5 16 9 SE 1019,0 40 50 0,0
23.05.2019 12:00:00 17,8 5,3 22,7 23,4 14,7 12,9 9 5 25 14 - 1019,5 10 60 0,0
23.05.2019 11:00:00 16,6 5,7 20,4 19,7 13,9 12,9 11 6 18 10 SE 1019,9 10 60 0,0
23.05.2019 10:00:00 16,0 7,5 19,0 17,0 13,3 12,9 8 4 15 8 ESE 1020,1 10 60 0,0
23.05.2019 09:00:00 13,8 7,5 15,8 13,8 13,0 12,9 6 4 9 5 E 1020,2 30 60 0,0
23.05.2019 08:00:00 11,3 7,7 10,7 10,8 13,0 12,9 5 3 9 5 E 1020,4 30 59 0,0
23.05.2019 07:00:00 8,3 6,3 7,0 9,5 13,3 12,9 5 3 11 6 ENE 1020,6 10 3 0,0
23.05.2019 06:00:00 7,3 6,1 5,3 9,5 13,6 12,9 8 4 9 5 ENE 1020,8 10 0 0,0
23.05.2019 05:00:00 7,8 6,3 4,8 9,8 14,0 12,9 5 3 8 4 ENE 1020,8 10 0 0,0
23.05.2019 04:00:00 8,2 5,9 4,8 10,3 14,3 12,9 8 4 9 5 ENE 1020,9 10 0 0,0
23.05.2019 03:00:00 8,9 6,1 5,3 10,8 14,8 12,9 8 4 9 5 ENE 1021,0 10 0 0,0
23.05.2019 02:00:00 9,2 6,7 5,6 11,4 15,2 12,9 7 4 11 6 E 1021,1 30 0 0,0
23.05.2019 01:00:00 8,9 5,8 6,0 12,1 15,7 12,9 8 4 11 6 E 1021,2 30 0 0,0
23.05.2019 00:00:00 10,2 6,3 6,4 13,0 16,2 12,9 8 4 13 7 ENE 1020,9 10 0 0,0
22.05.2019 23:00:00 10,5 6,1 7,6 14,1 16,8 12,9 9 5 15 8 ENE 1020,7 10 0 0,0
22.05.2019 22:00:00 12,0 6,0 8,8 15,8 17,2 12,9 8 4 11 6 ENE 1020,2 10 0 0,0
22.05.2019 21:00:00 16,7 4,9 14,9 17,9 17,5 13,0 5 3 11 6 N 1019,2 10 44 0,0
22.05.2019 20:00:00 17,7 5,7 17,4 19,3 17,7 13,0 8 5 16 9 NNE 1018,9 50 60 0,0
22.05.2019 19:00:00 18,1 4,5 19,0 20,9 17,7 13,0 10 5 22 12 NNW 1018,8 50 38 0,0
22.05.2019 18:00:00 17,2 3,4 18,0 23,6 17,3 13,0 18 10 29 16 WNW 1019,0 10 56 0,0
22.05.2019 17:00:00 17,5 3,5 18,7 24,1 16,7 13,0 15 8 27 15 NW 1019,1 10 55 0,0
22.05.2019 16:00:00 18,0 4,0 23,1 23,3 16,1 13,0 11 6 26 14 NW 1018,9 10 46 0,0
22.05.2019 15:00:00 16,9 4,7 21,0 22,5 15,5 13,0 15 8 25 14 NNW 1019,3 10 39 0,0
22.05.2019 14:00:00 15,4 6,1 17,3 23,3 14,6 13,0 6 4 24 13 W 1019,7 40 47 0,0
22.05.2019 13:00:00 14,9 8,2 21,6 21,8 13,7 13,0 9 5 16 9 W 1019,9 30 53 0,0
22.05.2019 12:00:00 12,5 7,9 15,3 18,0 13,0 13,0 4 2 15 8 - 1020,2 10 26 0,0
22.05.2019 11:00:00 11,2 6,7 13,7 15,2 12,4 12,9 5 3 15 8 - 1020,2 10 5 0,0
22.05.2019 10:00:00 10,2 7,3 12,3 12,6 12,1 12,9 7 4 13 7 NNW 1020,3 15 0 0,0
22.05.2019 09:00:00 9,3 6,8 9,6 11,5 11,9 12,9 5 3 10 5 NNW 1020,2 10 0 0,0
22.05.2019 08:00:00 8,9 6,6 9,1 9,8 11,9 12,9 4 2 13 7 NW 1019,7 4,0 60 0,0
22.05.2019 07:00:00 6,7 5,7 7,4 8,1 12,1 12,9 7 4 9 5 W 1019,7 16 27 0,0
22.05.2019 06:00:00 6,1 5,6 3,3 7,9 12,5 12,9 8 5 11 6 W 1019,4 16 0 0,0
22.05.2019 05:00:00 6,3 5,9 2,4 8,5 12,8 12,9 7 4 9 5 W 1019,0 15 0 0,0
22.05.2019 04:00:00 7,0 6,4 3,9 9,1 13,2 12,9 3 1 8 4 W 1018,9 9 0 0,0
22.05.2019 03:00:00 7,3 6,8 3,9 9,8 13,5 12,9 4 2 8 4 SSW 1018,8 18 0 0,0
22.05.2019 02:00:00 8,2 7,5 5,9 10,7 13,8 12,9 5 3 12 6 SSW 1018,3 18 0 0,0
22.05.2019 01:00:00 9,6 8,4 8,1 11,6 14,0 12,9 8 4 14 8 WNW 1018,1 16 0 0,0
22.05.2019 00:00:00 10,2 9,4 9,5 12,0 14,2 12,9 9 5 13 7 W 1018,0 10 0 0,0
21.05.2019 23:00:00 10,6 9,4 10,0 12,5 14,4 12,9 9 5 16 9 W 1017,8 10 0 0,0
21.05.2019 22:00:00 11,0 9,3 10,2 12,7 14,6 12,9 10 5 29 16 NW 1017,4 15 0 0,0
21.05.2019 21:00:00 11,1 9,5 10,5 13,3 14,8 12,9 18 10 31 17 NW 1017,0 15 0 0,1
21.05.2019 20:00:00 11,6 10,6 11,4 14,1 14,9 12,9 14 8 21 11 WNW 1016,3 8 0 0,0
21.05.2019 19:00:00 11,9 10,8 12,0 14,7 14,9 12,9 15 8 26 14 WNW 1015,9 7 0 0,1
21.05.2019 18:00:00 12,0 10,9 12,3 15,0 14,9 12,9 18 10 27 15 WNW 1015,6 7 0 0,3
21.05.2019 17:00:00 12,3 10,6 12,6 15,2 14,8 12,8 16 9 25 14 WNW 1015,2 8 0 0,5
21.05.2019 16:00:00 12,7 11,2 13,1 15,5 14,7 12,8 18 10 27 14 WNW 1014,7 8 0 0,7
21.05.2019 15:00:00 12,5 10,9 12,9 15,3 14,5 12,8 22 12 31 17 WNW 1014,2 9 0 0,2
21.05.2019 14:00:00 12,5 11,0 13,1 14,8 14,4 12,8 16 9 28 15 W 1013,8 8 0 0,9
21.05.2019 13:00:00 11,4 10,5 11,7 13,7 14,3 12,8 15 8 25 14 W 1013,3 6 0 1,5
21.05.2019 12:00:00 10,9 10,2 11,1 13,2 14,3 12,8 17 9 24 13 W 1012,8 4,5 0 3,2
21.05.2019 11:00:00 11,4 10,4 11,5 13,1 14,4 12,8 16 9 36 19 W 1012,2 8 0 1,2
21.05.2019 10:00:00 11,4 9,9 11,2 12,9 14,4 12,8 18 10 28 15 WNW 1011,5 10 0 0,2
21.05.2019 09:00:00 11,2 9,6 10,8 12,7 14,5 12,8 16 8 28 15 WNW 1011,3 11 0 0,1
21.05.2019 08:00:00 11,2 9,4 10,9 12,5 14,7 12,8 21 11 37 20 W 1010,6 12 0 0,0
21.05.2019 07:00:00 11,3 9,3 11,1 12,5 14,9 12,7 18 10 30 16 W 1010,3 12 0 0,0
21.05.2019 06:00:00 11,1 9,5 10,9 12,6 15,1 12,7 17 9 35 19 W 1010,1 12 0 0,0
21.05.2019 05:00:00 11,1 9,4 11,0 12,8 15,3 12,7 18 10 33 18 W 1009,8 10 0 0,0

tt = Température de l'air
td = dewpoint
tt 5cm = Température de l'air 5cm
tt -5cm = Température de l'air -5cm
tt -20cm = Température de l'air -20cm
tt -100cm = Température de l'air -100cm
ff = Vitesse du vent
fx = gusts
dd = Direction du vent
ppp = reduced air pressure
vv = visibility
sd = Ensoleillement
rr = Quantités de précipitations

stations d'obs. à proximité